Location: Unspecified
(44.4377°N, 88.0525°W)
Time: 21:58:12
(UTC-05:00)

Cosmos 2058 - Visible Passes

Search period start: 23 July 2016 00:00
Search period end: 02 August 2016 00:00
Orbit: 565 x 585 km, 82.5° (Epoch: 23 July)

Date Brightness Start Highest point End Pass type
(mag) Time Alt. Az. Time Alt. Az. Time Alt. Az.
23 Jul 6.2 04:32:21 10° NNE 04:34:43 14° ENE 04:37:04 10° ESE visible
24 Jul 5.9 04:35:28 10° NNE 04:38:28 19° ENE 04:41:28 10° ESE visible
25 Jul 5.6 04:38:45 10° NNE 04:42:13 24° ENE 04:45:39 10° SE visible
26 Jul 5.1 04:42:09 10° NNE 04:45:55 31° ENE 04:49:41 10° SE visible
27 Jul 4.5 04:45:37 10° N 04:49:38 40° ENE 04:53:37 10° SSE visible
28 Jul 3.8 04:49:08 10° N 04:53:18 54° ENE 04:57:25 10° SSE visible
29 Jul 3.3 04:52:42 10° N 04:56:57 73° E 05:01:09 10° SSE visible
30 Jul 2.9 04:56:20 10° N 05:00:35 83° W 05:04:47 10° S visible
31 Jul 6.0 03:24:54 10° NE 03:26:47 13° ENE 03:28:40 10° E visible
31 Jul 3.0 05:00:01 10° NNW 05:04:11 62° W 05:08:21 10° S visible
01 Aug 5.8 03:27:51 10° NNE 03:30:34 16° ENE 03:33:15 10° ESE visible
01 Aug 3.3 05:03:44 10° NNW 05:07:47 45° W 05:11:48 10° SSW visible
